Simultaneous Nadir Overpasses (SNOs) Predictions

Prediction of SNOs between GOES-16 and AQUA Satellite Orbit:

Table of predicted SNOs for the next 14.0 days since TLE Epoch: 12/27/2019
Index Date Time (GOES-16) GOES-16 Lat,Lon AQUA Lat,Lon Distance(km) Time Diff (sec)
1 12/28/2019 06:38:10 0.02, -75.19 0.04, -75.34 16.54 80
2 12/30/2019 06:23:19 0.02, -75.20 -0.61, -72.39 320.95 80
3 12/30/2019 18:47:22 -0.02, -75.21 -0.52, -77.57 268.38 80
4 01/01/2020 18:32:31 -0.02, -75.23 0.12, -74.62 70.02 80
5 01/03/2020 18:20:20 -0.01, -75.26 0.77, -71.67 409.09 80
6 01/04/2020 06:44:15 0.02, -75.26 0.33, -76.82 176.60 80
7 01/06/2020 06:29:23 0.02, -75.29 -0.26, -73.85 163.07 80
8 01/06/2020 18:53:28 -0.03, -75.30 -0.81, -79.05 425.87 80
9 01/08/2020 18:41:16 -0.03, -75.33 -0.21, -76.09 85.99 80
10 01/10/2020 18:26:25 -0.03, -75.37 0.45, -73.13 254.09 80




NCC Satellite Simultaneous Nadir Overpasses (SNOs) Prediction Service
